User: anonymous   Login
Location: Beuerbach
(48.1459°N, 10.9174°E)
Time: 23:20:28
(UTC+00:00)
Language:

COSMOS 2441 - Orbit

View from above orbital plane
View from above orbital plane
View from above satellite
View from above satellite

Ground track
Ground track

The orbit data is extracted from the following two-line orbital elements,

1 33272U 08037A   24194.60503097  .00000358  00000-0  98591-4 0  9997
2 33272  98.2419 138.7619 0016113 352.2575   7.8370 14.52506654845738
Epoch (UTC): 12 July 2024 14:31:14
Eccentricity: 0.0016113
inclination: 98.2419°
perigee height: 706 km
apogee height: 729 km
right ascension of ascending node: 138.7619°
argument of perigee: 352.2575°
revolutions per day: 14.52506654
mean anomaly at epoch: 7.8370°
orbit number at epoch: 84573

The dashed part of the orbit path shows where the satellite is in the earth's shadow,  

DLR